Probability
0 0 0 0 0 0 0 0 0 0 0 0 0 0 0 0 0 0 0 0 0 0 0 0 0 0 0 0 0 0 0 0 0 0 0 0 0 0 0 0 0 0 0
0 0 0 0 0 0 0 0 0 0 0 0 0 0 0 0 0 0 0 0 0 0 0 0 0 0 0 0 0 0 0 0 0 0 0 0 0 0 0 0 0 0 0
0 0 0 0 0 0 0 0 0 0 0 0 0 0 0 0 0 0 0 0 0 0 0 0 0 0 0 0 0 0 0 0 0 0 0 0 0 0 0 0 0 0 0
0 0 0 0 0 0 0 0 0 0 0 0 0 0 0 0 0 0 0 0 0 0 0 0 0 0 0 0 0 0 0 0 0 0 0 0 0 0 0 0 0 0 0
0 0 0 0 0 0 0 0 0 0 0 0 0 0 0 0 0 0 0 0 0 0 0 0 0 0 0 0 0 0 0 0 0 0 0 0 0 0 0 0 0 0 0
0 0 0 0 0 0 0 0 0 0 0 0 0 0 0 0 0 0 0 0 0 0 0 0 0 0 0 0 0 0 0 0 0 0 0 0 0 0 0 0 0 0 0
0 0 0 0 0 0 0 0 0 0 0 0 0 0 0 0 0 0 0 0 0 0 0 0 0 0 0 0 0 0 0 0 0 0 0 0 0 0 0 0 0 0 0
0 0 0 0 0 0 0 0 0 0 0 0 0 0 0 0 0 0 0 0 0 0 0 0 0 0 0 0 0 0 0 0 0 0 0 0 0 0 0 0 0 0 0
0 0 0 0 0 0 0 0 0 0 0 0 0 0 0 0 0 0 0 0 0 0 0 0 0 0 0 0 0 0 0 0 0 0 0 0 0 0 0 0 0 0 0
0 0 0 0 0 0 0 0 0 0 0 0 0 0 0 0 0 0 0 0 0 0 0 0 0 0 0 0 0 0 0 0 0 0 0 0 0 0 0 0 0 0 0
0 0 0 0 0 0 0 0 0 0 0 0 0 0 0 0 0 0 0 0 0 0 0 0 0 0 0 0 0 0 0 0 0 0 0 0 0 0 0 0 0 0 0
0 0 0 0 0 0 0 0 0 0 0 0 0 0 0 0 0 0 0 0 0 0 0 0 0 0 0 0 0 0 0 0 0 0 0 0 0 0 0 0 0 0 0
0 0 0 0 0 0 0 0 0 0 0 0 0 0 0 0 0 0 0 0 0 0 0 0 0 0 0 0 0 0 0 0 0 0 0 0 0 0 0 0 0 0 0
0 0 0 0 0 0 0 0 0 0 0 0 0 0 0 0 0 0 0 0 0 0 0 0 0 0 0 0 0 0 0 0 0 0 0 0 0 0 0 0 0 0 0
0 0 0 0 0 0 0 0 0 0 0 0 0 0 0 0 0 0 0 0 0 0 0 0 0 0 0 0 0 0 0 0 0 0 0 0 0 0 0 0 0 0 0
0 0 0 0 0 0 0 0 0 0 0 0 0 0 0 0 0 0 0 0 0 0 0 0 0 0 0 0 0 0 0 0 0 0 0 0 0 0 0 0 0 0 0
0 0 0 0 0 0 0 0 0 0 0 0 0 0 0 0 0 0 0 0 0 0 0 0 0 0 0 0 0 0 0 0 0 0 0 0 0 0 0 0 0 0 0
0 0 0 0 0 0 0 0 0 0 0 0 0 0 0 0 0 0 0 0 0 0 0 0 0 0 0 0 0 0 0 0 0 0 0 0 0 0 0 0 0 0 0
0 0 0 0 0 0 0 0 0 0 0 0 0 0 0 0 0 0 0 0 0 0 0 0 0 0 0 0 0 0 0 0 0 0 0 0 0 0 0 0 0 0 0
0 0 0 0 0 0 0 0 0 0 0 0 0 0 0 0 0 0 0 0 0 0 0 0 0 0 0 0 0 0 0 0 0 0 0 0 0 0 0 0 0 0 0
0 0 0 0 0 0 0 0 0 0 0 0 0 0 0 0 0 0 0 0 0 0 0 0 0 0 0 0 0 0 0 0 0 0 0 0 0 0 0 0 0 0 0
0 0 0 0 0 0 0 0 0 0 0 0 0 0 0 0 0 0 0 0 0 0 0 0 0 0 0 0 0 0 0 0 0 0 0 0 0 0 0 0 0 0 0
0 0 0 0 0 0 0 0 0 0 0 0 0 0 0 0 0 0 0 0 0 0 0 0 0 0 0 0 0 0 0 0 0 0 0 0 0 0 0 0 0 0 0
0 0 0 0 0 0 0 0 0 0 0 0 0 0 0 0 0 0 0 0 0 0 0 0 0 0 0 0 0 0 0 0 0 0 0 0 0 0 0 0 0 0 0
0 0 0 0 0 0 0 0 0 0 0 0 0 0 0 0 0 0 0 0 0 0 0 0 0 0 0 0 0 0 0 0 0 0 0 0 0 0 0 0 0 0 0
0 0 0 0 0 0 0 0 0 0 0 0 0 0 0 0 0 0 0 0 0 0 0 0 0 0 0 0 0 0 0 0 0 0 0 0 0 0 0 0 0 0 0
Wind_Speed
5 5 5 5 5 5 5 7 7 7 7 8 8 8 9 9 9 10 11 11 14 14 13 15 17 14 13 11 11 12 13 13 18 13 7 7 11 11 11 10 11 12 12
5 5 5 6 6 6 7 8 7 8 8 8 8 9 10 10 9 10 12 12 13 14 14 14 16 13 16 13 12 14 14 14 16 20 8 8 12 11 10 10 10 11 10
5 5 6 7 7 8 8 8 8 8 9 8 8 9 10 10 10 11 12 12 13 14 13 14 15 14 16 13 14 14 13 13 14 16 14 7 8 7 8 9 10 8 10
6 6 7 8 8 9 9 9 9 9 9 10 10 10 10 11 11 11 11 12 13 13 13 13 14 14 16 15 14 15 13 14 14 15 14 8 8 6 7 8 9 9 10
6 7 8 9 9 9 9 9 9 9 10 10 11 11 11 9 10 11 11 12 13 13 13 13 14 18 22 18 14 12 12 13 12 13 14 11 10 8 9 8 11 8 9
7 8 9 9 9 9 10 10 10 10 10 10 11 12 12 10 18 24 19 12 11 12 13 12 14 18 22 28 30 27 22 16 15 14 14 14 13 12 9 10 10 9 9
8 9 10 10 10 11 11 11 11 11 10 11 11 11 13 15 24 26 26 17 12 11 11 11 11 12 18 14 20 27 26 30 28 18 17 17 13 12 12 13 12 11 11
9 10 10 10 11 11 11 11 12 10 11 11 12 12 13 16 25 26 26 17 12 11 11 11 12 12 12 14 13 14 15 16 18 17 15 14 12 10 12 14 13 11 7
10 10 10 10 12 12 13 13 12 12 12 12 12 13 14 16 23 26 25 11 10 11 10 11 12 12 19 24 16 14 14 13 20 26 24 20 23 24 18 10 10 10 10
11 11 11 10 12 13 14 14 12 11 13 13 13 12 14 14 21 25 25 9 10 10 9 9 17 18 20 23 14 12 14 12 10 10 14 17 16 18 25 16 12 11 7
11 11 11 11 11 13 13 12 12 12 13 13 14 13 12 15 20 23 24 11 9 10 9 8 8 19 22 23 19 12 15 13 9 10 9 9 8 8 9 10 11 11 9
11 12 12 11 11 11 12 13 12 12 13 13 13 13 9 11 16 18 23 22 19 11 10 8 9 20 22 22 16 16 19 16 7 7 7 8 8 8 8 8 10 11 10
12 12 12 12 10 10 12 13 12 10 11 11 11 12 11 8 11 21 23 23 23 14 9 16 19 22 19 13 15 19 15 7 6 7 8 8 7 7 6 6 8 9 9
13 13 12 12 12 10 9 9 10 10 11 12 12 12 12 10 9 8 9 11 15 13 11 14 19 19 14 13 12 10 6 5 6 7 6 6 5 6 7 7 7 7 7
12 12 12 11 12 12 10 9 11 10 13 15 12 11 13 13 14 22 18 10 9 10 11 7 5 5 5 5 5 5 5 5 6 5 6 6 6 7 6 6 6 6 6
12 11 10 10 10 11 11 12 16 18 24 25 24 22 16 20 26 26 26 25 24 21 13 6 6 5 6 5 5 5 4 5 5 5 5 6 6 6 6 5 5 6 6
12 12 10 10 11 11 11 12 14 15 19 22 23 24 23 25 25 24 24 22 20 18 8 6 6 6 6 5 5 5 4 4 4 4 5 5 5 5 6 6 6 6 6
11 14 14 11 11 11 11 12 12 13 14 11 14 21 24 23 23 22 21 17 10 8 5 6 6 5 5 5 5 4 4 4 4 4 4 5 5 5 6 6 6 6 6
11 9 10 10 10 11 11 11 11 12 12 12 11 13 18 19 20 19 16 7 7 7 6 6 5 5 5 5 4 4 4 4 4 4 4 4 5 5 5 5 6 10 8
9 17 17 12 11 11 11 11 11 11 11 11 10 10 10 11 8 8 7 6 6 6 6 6 5 5 5 4 4 4 4 4 4 4 4 4 4 5 5 6 6 6 6
9 12 19 14 10 11 11 11 11 10 10 11 10 12 18 11 8 9 7 6 6 6 6 6 5 5 4 4 4 4 4 4 3 4 4 4 4 4 4 5 5 6 5
9 10 10 11 11 10 11 10 10 10 11 12 10 11 18 10 8 8 7 7 6 5 5 5 5 4 4 4 3 3 4 4 3 3 3 4 4 4 4 5 5 5 5
10 11 11 11 10 15 13 10 10 10 10 11 10 10 9 8 8 7 7 6 6 5 5 4 5 4 4 3 3 4 4 4 4 4 4 4 4 4 4 5 6 6 6
9 10 12 11 11 10 11 11 10 10 11 10 9 9 8 8 7 8 7 6 5 5 5 4 4 5 6 4 3 3 3 4 4 4 6 5 5 5 5 5 6 7 7
8 10 11 10 11 11 11 11 11 10 10 10 9 8 8 8 7 7 6 6 6 6 6 5 4 5 6 6 5 4 7 8 7 5 4 5 6 6 6 6 6 6 7
9 10 10 10 10 10 10 11 11 11 10 10 8 8 8 8 7 7 6 6 5 5 5 5 5 6 6 5 6 8 10 9 9 9 5 4 5 6 6 6 8 7 8
Wind_Direction
333 329 325 315 308 300 288 282 280 279 279 275 272 269 265 261 255 250 248 245 244 245 240 238 239 233 233 231 227 227 228 228 249 255 210 202 205 217 228 224 220 228 235
321 320 313 306 304 298 290 285 282 280 278 274 273 271 269 266 260 254 257 253 249 249 245 242 243 237 235 232 229 229 229 226 237 255 241 211 215 214 219 222 223 223 222
321 317 311 306 303 297 292 290 289 284 283 279 274 272 271 269 266 260 258 258 254 252 249 244 245 239 240 235 231 232 231 230 231 245 249 221 219 212 216 225 227 226 222
317 312 305 299 295 292 290 289 287 285 284 282 277 274 273 272 268 266 263 261 259 256 252 248 246 240 241 238 236 234 231 231 232 238 246 233 222 198 205 216 227 222 229
313 307 298 294 292 291 290 289 288 285 283 281 281 280 276 274 271 269 264 261 260 260 256 250 247 246 245 244 240 235 228 231 231 235 241 237 225 203 211 206 224 222 225
304 298 296 297 296 294 292 291 290 288 285 283 281 282 282 280 286 288 286 272 262 259 259 255 251 256 257 257 253 246 232 228 229 231 235 235 230 218 211 211 217 218 227
297 295 296 296 294 292 291 292 291 291 288 287 283 282 282 283 290 293 291 287 274 267 262 261 260 255 258 250 255 258 253 244 233 225 233 233 227 215 211 215 214 213 220
295 293 292 292 292 293 293 292 291 289 289 288 288 285 284 286 293 295 295 290 280 272 265 261 261 260 253 253 246 247 249 252 249 239 231 230 226 217 209 214 215 221 224
294 292 292 293 295 297 297 296 294 294 293 289 288 287 287 290 294 296 296 286 278 273 268 263 263 260 264 267 259 249 249 248 253 251 243 235 230 227 216 211 211 215 223
294 293 294 294 294 296 296 296 295 292 292 294 291 287 286 287 291 295 296 285 280 278 271 263 270 272 271 270 261 253 251 244 235 244 248 247 240 233 228 215 206 211 211
294 295 296 294 292 293 293 293 294 295 294 293 292 290 285 284 292 295 296 291 278 280 278 273 265 277 279 277 270 255 253 248 230 230 233 232 226 223 226 219 206 210 210
297 297 298 296 294 298 296 296 295 295 297 296 295 294 286 283 289 292 294 294 294 288 284 278 273 281 281 277 274 264 261 257 232 222 227 227 221 218 217 218 214 214 215
301 300 300 299 295 292 294 298 300 297 295 297 297 297 296 289 288 295 297 298 298 294 281 284 287 289 290 286 281 277 269 252 229 224 224 224 218 211 203 207 211 214 218
302 303 302 302 302 297 293 293 295 297 296 296 296 298 300 297 292 288 284 289 292 291 286 285 288 289 285 277 277 279 267 243 235 231 223 216 204 202 204 203 205 202 208
301 301 302 300 300 301 296 291 294 285 288 296 297 297 299 299 297 302 303 297 291 282 288 276 269 271 265 261 259 256 250 248 245 232 223 212 205 206 205 196 195 193 200
303 304 303 302 300 300 301 300 294 295 300 301 300 299 296 296 302 306 307 306 307 305 302 288 280 274 269 264 259 253 245 243 238 227 220 211 203 199 197 189 188 194 204
293 300 301 300 301 301 302 303 305 304 301 302 303 304 304 305 307 309 309 310 309 310 301 288 279 273 269 264 257 251 248 241 232 222 217 209 200 195 191 191 192 197 206
291 296 300 298 297 297 298 299 300 303 307 304 303 306 308 309 311 312 313 314 308 305 283 281 281 278 273 267 261 255 252 244 231 222 214 207 199 195 195 197 197 200 206
295 295 295 295 295 295 296 297 297 297 297 300 302 304 308 311 311 310 313 305 299 298 292 285 282 278 273 265 259 254 248 243 231 218 212 205 198 195 200 202 202 214 211
293 299 305 303 299 299 298 297 297 296 297 298 300 303 307 308 305 307 306 296 295 294 293 289 285 280 275 268 261 254 248 240 226 217 212 204 198 198 204 204 203 207 211
295 298 303 303 297 296 297 297 295 295 297 298 297 300 309 310 307 306 303 299 294 292 291 289 285 280 272 265 259 252 246 239 225 215 209 203 199 203 205 205 206 208 210
293 295 296 298 298 298 297 297 298 298 298 298 300 304 309 308 300 299 298 296 293 289 285 284 281 275 268 260 253 247 243 239 227 214 209 205 203 206 205 207 209 209 212
292 295 299 299 298 299 302 298 297 297 297 298 301 303 304 301 299 299 300 299 298 295 292 288 285 280 272 262 250 240 238 237 226 211 208 210 210 210 208 212 213 214 220
293 299 301 301 300 298 298 299 298 297 297 298 299 299 300 301 301 300 299 298 296 294 291 289 283 279 278 275 262 248 241 239 224 215 209 211 213 213 213 217 220 224 226
298 300 300 300 299 300 299 299 298 298 297 299 299 300 301 300 298 297 296 294 295 294 296 295 289 286 281 276 271 262 259 256 250 232 211 214 217 217 220 224 227 229 232
300 300 299 299 298 298 298 298 298 299 299 298 298 298 298 297 296 295 294 292 293 294 295 294 290 290 287 281 274 274 274 268 259 251 235 217 220 226 225 230 230 232 235